Simultaneous Nadir Overpasses (SNOs) Predictions

Prediction of SNOs between AQUA and GOES-15 Satellite Orbit:

Table of predicted SNOs for the next 14.0 days since TLE Epoch: 7/3/2015
Index Date Time (AQUA) AQUA Lat,Lon GOES-15 Lat,Lon Distance(km) Time Diff (sec)
1 07/04/2015 10:32:30 -0.28,-134.18 -0.12,-134.88 79.50 80
2 07/06/2015 10:20:18 -0.90,-131.23 -0.11,-134.93 421.00 80
3 07/06/2015 22:41:43 -0.16,-136.43 0.13,-134.93 170.12 80
4 07/08/2015 22:29:31 0.47,-133.47 0.13,-134.97 170.82 80
5 07/09/2015 10:50:45 0.63,-138.63 -0.14,-134.99 413.37 80
6 07/11/2015 10:38:34 -0.02,-135.68 -0.14,-135.03 73.11 80
7 07/13/2015 10:26:21 -0.63,-132.71 -0.15,-135.06 266.68 80
8 07/13/2015 22:47:45 -0.42,-137.91 0.16,-135.06 324.50 80
9 07/15/2015 22:35:32 0.19,-134.95 0.17,-135.08 14.91 80




NCC Satellite Simultaneous Nadir Overpasses (SNOs) Prediction Service
